Location: Fountain Hills
(33.6120°N, 111.7170°W)
Time: 18:50:04
(UTC-07:00)

Daily predictions for brighter satellites

Satellite Brightness Start Highest point End
(mag) Time Altitude Azimuth Time Altitude Azimuth Time Altitude Azimuth
COSMOS 2455 3.7 17:37:26 10° SW 17:43:16 53° WNW 17:49:09 10° NNE
Chunghua 1 4.5 17:42:12 10° W 17:45:55 77° N 17:49:37 10° E
Meteor 1-28 Rocket 3.4 17:42:20 10° NNE 17:45:57 50° E 17:49:32 10° S
Cosmos 1606 3.6 17:44:07 10° SSE 17:47:20 27° E 17:50:34 10° NNE
Okean 1-7 4.1 17:46:09 10° SE 17:49:45 26° E 17:53:22 10° NNE
Cosmos 1484 Rocket 2.8 17:46:22 10° SSE 17:50:08 59° ENE 17:53:59 10° N
Cosmos 468 Rocket 4.2 17:48:13 10° NNW 17:53:23 80° WSW 17:58:30 10° SSE
BREEZE-M DEB (TANK) 4.2 17:42:03 10° NW 17:55:58 64° SW 17:59:50 10° SSE
Landsat 4 3.9 17:53:53 10° NNE 17:57:35 50° E 18:01:17 10° S
EO 1 Del DPAF 4.0 17:56:54 10° NE 18:00:20 31° E 18:03:43 10° SSE
CZ-4C R/B 4.3 18:01:26 10° N 18:05:48 16° NE 18:09:18 12° ENE
CSL-04 Rocket 4.1 18:04:44 10° S 18:09:58 68° WSW 18:15:17 10° NNW
Cosmos 1782 Rocket 4.1 18:06:56 10° NNE 18:10:55 34° E 18:14:52 10° SE
Meteor 2-6 Rocket 4.5 18:06:26 10° SSE 18:11:32 44° E 18:16:44 10° NNE
Cosmos 1763 Rocket 3.4 18:06:26 10° NNW 18:11:39 85° ENE 18:16:45 10° SSE
Cosmos 1782 2.8 18:08:58 10° S 18:12:56 62° E 18:16:55 10° NNE
YAOGAN 1 2.6 18:08:46 10° SSE 18:12:58 54° ENE 18:17:12 10° N
METEOR-M 4.3 18:10:23 10° SSE 18:15:30 49° ENE 18:20:38 10° N
USA 116 4.0 18:11:54 10° N 18:16:13 73° WNW 18:19:58 10° SSW
COSMO-SKYMED 1 2.6 18:12:34 10° NNE 18:16:51 56° E 18:21:05 10° S
Cosmos 2082 Rocket 2.8 18:11:52 10° N 18:16:56 32° ENE 18:21:55 10° SE
ERS-2 2.4 18:15:16 10° SSE 18:18:47 45° ENE 18:22:18 10° N
Cosmos 405 Rocket 3.3 18:16:55 10° SSE 18:20:22 33° E 18:23:02 15° NE
Meteor 1-20 Rocket 4.1 18:15:41 10° N 18:21:14 76° E 18:26:40 10° SSE
Meteor 1-25 Rocket 4.3 18:16:00 10° N 18:21:52 85° E 18:27:38 10° S
SL-27 R/B 2.4 18:18:46 10° N 18:22:01 50° ENE 18:25:18 10° SSE
GPS 2-05 Rocket1 2.8 18:24:08 10° WSW 18:27:15 60° SSE 18:28:41 29° E
OAO 3 Rocket 3.7 18:24:28 10° SW 18:29:14 51° SSE 18:32:07 23° E
MTI 4.2 18:26:21 10° N 18:29:33 64° WNW 18:32:43 10° SSW
Cosmos 2221 Rocket 3.5 18:25:38 10° S 18:30:01 73° E 18:34:25 10° N
Cosmos 1072 Rocket 4.4 18:24:58 10° S 18:31:08 77° E 18:37:26 10° N
Cosmos 1503 Rocket 4.0 18:26:46 10° SSW 18:32:03 85° WNW 18:37:19 10° NNE
Tiangong 1 1.9 18:30:55 10° SSW 18:33:10 26° SE 18:33:14 26° SE
Cosmos 44 Rocket 4.4 18:29:53 10° N 18:33:45 23° NE 18:33:54 23° NE
Cosmos 1703 Rocket 4.2 18:30:16 10° SSW 18:34:40 58° W 18:39:04 10° N
Ariane Rocket 4.4 18:30:29 10° S 18:35:15 40° W 18:40:02 10° NNW
Cosmos 968 Rocket 4.0 18:31:17 10° SSE 18:35:59 37° E 18:38:29 23° NE
BREEZE-M R/B 3.3 18:34:14 10° NNW 18:37:10 38° NE 18:38:43 28° E
Cosmos 2034 Rocket 4.1 18:31:42 10° SSE 18:37:53 57° E 18:44:06 10° NNE
Cosmos 540 Rocket 3.5 18:32:52 10° N 18:37:56 53° ENE 18:42:57 10° SSE
MONITOR-E 4.0 18:35:55 10° SSE 18:38:56 68° ENE 18:41:58 10° N
Meteor 1-27 Rocket 3.9 18:35:41 10° SSE 18:41:21 53° E 18:47:06 10° NNE
OAO 3 Copernicus 4.2 18:37:32 10° W 18:42:38 88° NNE 18:45:13 30° E
Cosmos 292 Rocket 4.3 18:39:46 10° N 18:44:07 35° ENE 18:45:13 31° E
Cosmos 841 Rocket 4.1 18:42:05 10° NNW 18:47:16 58° WSW 18:52:23 10° S
USA 234 3.4 18:42:56 16° NE 18:48:22 74° NW 18:54:52 10° SW
Cosmos 1633 3.0 18:45:17 10° NNW 18:48:54 62° W 18:52:31 10° S
Cosmos 836 Rocket 4.4 18:43:43 10° N 18:48:57 67° ENE 18:54:11 10° SSE
DMSP B5D1-3 4.4 18:45:01 10° NNE 18:50:12 78° ESE 18:55:19 10° S
Meteor 1-10 Rocket 4.5 18:44:45 10° SSW 18:50:22 73° W 18:56:08 10° N
Okean 2 Rocket 3.0 18:48:43 10° N 18:53:15 70° E 18:57:43 10° SSE
Meteor 2-20 4.4 18:49:35 10° N 18:55:34 57° E 19:01:29 10° SSE
FENGYUN 3A 3.5 18:50:24 10° SSE 18:55:47 72° ENE 19:01:11 10° N
Cosmos 44 3.6 18:57:20 10° NNW 19:01:26 43° NE 19:01:26 43° NE
BREEZE-M DEB (TANK) 3.6 19:00:34 10° WNW 19:05:51 41° SW 19:07:23 24° S
ALOS 2.3 19:04:19 10° S 19:08:58 77° WSW 19:13:39 10° NNW
Cosmos 2369 Rocket 3.6 19:04:39 10° SSE 19:07:10 22° SE 19:07:10 22° SE
SPOT 3 Rocket 3.9 19:07:23 10° S 19:12:33 65° WSW 19:17:44 10° NNW
Cosmos 1833 Rocket 2.7 19:07:04 10° NNW 19:12:42 80° WSW 19:18:19 10° SSE
Meteor 1-11 Rocket 3.7 19:19:20 10° N 19:25:11 86° W 19:30:53 10° S
Gblst 52 Del rocket 4.0 19:24:18 10° SW 19:29:49 75° SE 19:29:56 75° ESE
USA 229 DEB 3.5 19:27:27 10° SSW 19:34:09 80° ESE 19:35:10 66° NE
USA 229 3.5 19:27:33 10° SSW 19:34:15 79° ESE 19:35:14 66° NE
Meteor 2-20 Rocket 4.4 19:33:01 10° N 19:39:07 79° W 19:45:09 10° S
Thor Agena Rocket 4.2 19:48:43 47° NW 19:49:22 51° WNW 19:54:20 10° SSW
CZ-4C R/B 2.9 19:48:04 10° NNW 19:54:35 66° NNE 19:54:35 66° NNE
Cosmos 2082 Rocket 4.0 19:56:03 10° NW 20:00:51 29° WSW 20:05:35 10° SSW
